Time,TemperatureF,DewpointF,PressureIn,WindDirection,WindDirectionDegrees,WindSpeedMPH,WindSpeedGustMPH,Humidity,HourlyPrecipIn,Conditions,Clouds,dailyrainin,SoftwareType,DateUTC
2013-12-31 00:02:00,39.5,30.5,30.26,South,191,0.0,0.0,70,0.00,,---,0.00,VWS V15.00,2013-12-31 07:02:00,
2013-12-31 00:07:00,39.3,30.4,30.26,South,191,0.0,0.0,70,0.00,,---,0.00,VWS V15.00,2013-12-31 07:07:00,
2013-12-31 00:12:00,39.1,30.5,30.26,South,191,0.0,0.0,71,0.00,,---,0.00,VWS V15.00,2013-12-31 07:12:00,
2013-12-31 00:17:00,39.1,30.5,30.26,South,191,0.0,0.0,71,0.00,,---,0.00,VWS V15.00,2013-12-31 07:17:00,
2013-12-31 00:22:00,39.5,30.9,30.26,South,191,0.0,0.0,71,0.00,,---,0.00,VWS V15.00,2013-12-31 07:22:00,
2013-12-31 00:27:00,39.5,30.9,30.26,South,191,0.0,0.0,71,0.00,,---,0.00,VWS V15.00,2013-12-31 07:27:00,
2013-12-31 00:32:00,39.4,30.4,30.26,South,191,0.0,0.0,70,0.00,,---,0.00,VWS V15.00,2013-12-31 07:32:00,
2013-12-31 00:37:00,38.9,30.3,30.26,South,191,0.0,0.0,71,0.00,,---,0.00,VWS V15.00,2013-12-31 07:37:00,
2013-12-31 00:42:00,38.5,29.9,30.26,South,191,0.0,0.0,71,0.00,,---,0.00,VWS V15.00,2013-12-31 07:42:00,
2013-12-31 00:47:00,38.4,30.2,30.26,South,191,0.0,0.0,72,0.00,,---,0.00,VWS V15.00,2013-12-31 07:47:00,
2013-12-31 00:52:00,38.3,30.1,30.26,South,191,0.0,0.0,72,0.00,,---,0.00,VWS V15.00,2013-12-31 07:52:00,
2013-12-31 00:57:00,37.9,29.7,30.26,South,190,0.0,0.0,72,0.00,,---,0.00,VWS V15.00,2013-12-31 07:57:00,
2013-12-31 01:02:00,37.7,29.8,30.26,South,190,0.0,0.0,73,0.00,,---,0.00,VWS V15.00,2013-12-31 08:02:00,
2013-12-31 01:07:00,37.6,30.1,30.26,South,190,0.0,0.0,74,0.00,,---,0.00,VWS V15.00,2013-12-31 08:07:00,
2013-12-31 01:12:00,37.4,29.9,30.25,South,190,0.0,0.0,74,0.00,,---,0.00,VWS V15.00,2013-12-31 08:12:00,
2013-12-31 01:17:00,37.5,30.3,30.25,South,191,0.0,0.0,75,0.00,,---,0.00,VWS V15.00,2013-12-31 08:17:00,
2013-12-31 01:22:00,37.3,30.1,30.25,South,190,0.0,0.0,75,0.00,,---,0.00,VWS V15.00,2013-12-31 08:22:00,
2013-12-31 01:27:00,37.2,30.4,30.25,South,191,0.0,0.0,76,0.00,,---,0.00,VWS V15.00,2013-12-31 08:27:00,
2013-12-31 01:32:00,37.1,30.2,30.25,South,191,0.0,0.0,76,0.00,,---,0.00,VWS V15.00,2013-12-31 08:32:00,
2013-12-31 01:37:00,37.3,30.4,30.25,South,191,0.0,0.0,76,0.00,,---,0.00,VWS V15.00,2013-12-31 08:37:00,
2013-12-31 01:42:00,37.2,30.4,30.25,South,191,0.0,0.0,76,0.00,,---,0.00,VWS V15.00,2013-12-31 08:42:00,
2013-12-31 01:47:00,37.2,30.4,30.25,South,191,0.0,0.0,76,0.00,,---,0.00,VWS V15.00,2013-12-31 08:47:00,
2013-12-31 01:52:00,36.9,29.7,30.25,South,191,0.0,0.0,75,0.00,,---,0.00,VWS V15.00,2013-12-31 08:52:00,
2013-12-31 01:57:00,36.6,29.8,30.25,South,191,0.0,0.0,76,0.00,,---,0.00,VWS V15.00,2013-12-31 08:57:00,
2013-12-31 02:02:00,36.4,29.6,30.25,South,190,0.0,0.0,76,0.00,,---,0.00,VWS V15.00,2013-12-31 09:02:00,
2013-12-31 02:07:00,36.2,29.7,30.25,South,191,0.0,0.0,77,0.00,,---,0.00,VWS V15.00,2013-12-31 09:07:00,
2013-12-31 02:12:00,36.1,29.9,30.25,South,191,0.0,0.0,78,0.00,,---,0.00,VWS V15.00,2013-12-31 09:12:00,
2013-12-31 02:17:00,36.0,29.8,30.25,South,191,0.0,0.0,78,0.00,,---,0.00,VWS V15.00,2013-12-31 09:17:00,
2013-12-31 02:22:00,35.8,29.6,30.25,South,190,0.0,0.0,78,0.00,,---,0.00,VWS V15.00,2013-12-31 09:22:00,
2013-12-31 02:27:00,35.8,29.9,30.25,South,191,0.0,0.0,79,0.00,,---,0.00,VWS V15.00,2013-12-31 09:27:00,
2013-12-31 02:32:00,35.8,29.9,30.25,South,191,0.0,0.0,79,0.00,,---,0.00,VWS V15.00,2013-12-31 09:32:00,
2013-12-31 02:37:00,36.2,30.0,30.25,South,191,0.0,0.0,78,0.00,,---,0.00,VWS V15.00,2013-12-31 09:37:00,
2013-12-31 02:42:00,36.2,30.0,30.25,South,191,0.0,0.0,78,0.00,,---,0.00,VWS V15.00,2013-12-31 09:42:00,
2013-12-31 02:47:00,36.3,30.4,30.25,South,191,0.0,0.0,79,0.00,,---,0.00,VWS V15.00,2013-12-31 09:47:00,
2013-12-31 02:52:00,36.6,30.4,30.25,South,191,0.0,0.0,78,0.00,,---,0.00,VWS V15.00,2013-12-31 09:52:00,
2013-12-31 02:57:00,36.4,29.9,30.25,South,191,0.0,0.0,77,0.00,,---,0.00,VWS V15.00,2013-12-31 09:57:00,
2013-12-31 03:02:00,36.0,29.5,30.25,South,191,0.0,0.0,77,0.00,,---,0.00,VWS V15.00,2013-12-31 10:02:00,
2013-12-31 03:07:00,35.6,29.1,30.25,South,191,0.0,0.0,77,0.00,,---,0.00,VWS V15.00,2013-12-31 10:07:00,
2013-12-31 03:12:00,35.5,29.3,30.25,South,191,0.0,0.0,78,0.00,,---,0.00,VWS V15.00,2013-12-31 10:12:00,
2013-12-31 03:17:00,35.6,29.4,30.25,South,190,0.0,0.0,78,0.00,,---,0.00,VWS V15.00,2013-12-31 10:17:00,
2013-12-31 03:22:00,35.5,29.3,30.24,South,191,0.0,1.0,78,0.00,,---,0.00,VWS V15.00,2013-12-31 10:22:00,
2013-12-31 03:27:00,35.6,29.1,30.24,South,191,0.0,0.0,77,0.00,,---,0.00,VWS V15.00,2013-12-31 10:27:00,
2013-12-31 03:32:00,35.6,29.1,30.24,South,191,0.0,0.0,77,0.00,,---,0.00,VWS V15.00,2013-12-31 10:32:00,
2013-12-31 03:37:00,35.4,28.9,30.24,South,190,0.0,0.0,77,0.00,,---,0.00,VWS V15.00,2013-12-31 10:37:00,
2013-12-31 03:42:00,35.3,29.1,30.24,South,191,0.0,0.0,78,0.00,,---,0.00,VWS V15.00,2013-12-31 10:42:00,
2013-12-31 03:47:00,35.2,29.0,30.24,South,191,0.0,0.0,78,0.00,,---,0.00,VWS V15.00,2013-12-31 10:47:00,
2013-12-31 03:52:00,35.0,28.9,30.24,South,191,0.0,0.0,78,0.00,,---,0.00,VWS V15.00,2013-12-31 10:52:00,
2013-12-31 03:57:00,35.0,29.2,30.24,South,191,0.0,0.0,79,0.00,,---,0.00,VWS V15.00,2013-12-31 10:57:00,
2013-12-31 04:02:00,34.9,28.8,30.24,South,191,0.0,0.0,78,0.00,,---,0.00,VWS V15.00,2013-12-31 11:02:00,
2013-12-31 04:07:00,34.8,28.6,30.24,South,191,0.0,0.0,78,0.00,,---,0.00,VWS V15.00,2013-12-31 11:07:00,
2013-12-31 04:12:00,34.8,28.6,30.23,South,191,0.0,0.0,78,0.00,,---,0.00,VWS V15.00,2013-12-31 11:12:00,
2013-12-31 04:17:00,35.0,29.2,30.23,South,191,0.0,0.0,79,0.00,,---,0.00,VWS V15.00,2013-12-31 11:17:00,
2013-12-31 04:22:00,35.0,29.2,30.23,South,191,0.0,0.0,79,0.00,,---,0.00,VWS V15.00,2013-12-31 11:22:00,
2013-12-31 04:27:00,34.9,28.8,30.23,South,191,0.0,0.0,78,0.00,,---,0.00,VWS V15.00,2013-12-31 11:27:00,
2013-12-31 04:32:00,34.6,28.5,30.23,South,191,0.0,0.0,78,0.00,,---,0.00,VWS V15.00,2013-12-31 11:32:00,
2013-12-31 04:37:00,34.2,28.4,30.23,South,190,0.0,0.0,79,0.00,,---,0.00,VWS V15.00,2013-12-31 11:37:00,
2013-12-31 04:42:00,34.1,28.6,30.22,South,191,0.0,0.0,80,0.00,,---,0.00,VWS V15.00,2013-12-31 11:42:00,
2013-12-31 04:47:00,34.0,28.5,30.22,South,191,0.0,0.0,80,0.00,,---,0.00,VWS V15.00,2013-12-31 11:47:00,
2013-12-31 04:52:00,34.0,28.5,30.22,South,191,0.0,0.0,80,0.00,,---,0.00,VWS V15.00,2013-12-31 11:52:00,
2013-12-31 04:57:00,33.9,28.4,30.22,South,191,0.0,0.0,80,0.00,,---,0.00,VWS V15.00,2013-12-31 11:57:00,
2013-12-31 05:02:00,33.8,28.3,30.22,South,191,0.0,0.0,80,0.00,,---,0.00,VWS V15.00,2013-12-31 12:02:00,
2013-12-31 05:07:00,33.8,28.6,30.21,South,191,0.0,0.0,81,0.00,,---,0.00,VWS V15.00,2013-12-31 12:07:00,
2013-12-31 05:12:00,33.8,28.6,30.21,South,191,0.0,0.0,81,0.00,,---,0.00,VWS V15.00,2013-12-31 12:12:00,
2013-12-31 05:17:00,33.5,28.0,30.21,South,191,0.0,0.0,80,0.00,,---,0.00,VWS V15.00,2013-12-31 12:17:00,
2013-12-31 05:22:00,33.5,28.0,30.22,South,191,0.0,0.0,80,0.00,,---,0.00,VWS V15.00,2013-12-31 12:22:00,
2013-12-31 05:27:00,33.5,28.0,30.22,South,191,0.0,0.0,80,0.00,,---,0.00,VWS V15.00,2013-12-31 12:27:00,
2013-12-31 05:32:00,33.6,28.1,30.21,South,190,0.0,0.0,80,0.00,,---,0.00,VWS V15.00,2013-12-31 12:32:00,
2013-12-31 05:37:00,33.7,28.2,30.22,South,191,0.0,0.0,80,0.00,,---,0.00,VWS V15.00,2013-12-31 12:37:00,
2013-12-31 05:42:00,33.9,28.7,30.22,South,190,0.0,0.0,81,0.00,,---,0.00,VWS V15.00,2013-12-31 12:42:00,
2013-12-31 05:47:00,33.9,28.4,30.22,South,190,0.0,0.0,80,0.00,,---,0.00,VWS V15.00,2013-12-31 12:47:00,
2013-12-31 05:52:00,34.0,28.5,30.22,South,191,0.0,0.0,80,0.00,,---,0.00,VWS V15.00,2013-12-31 12:52:00,
2013-12-31 05:57:00,33.9,28.4,30.23,South,191,0.0,0.0,80,0.00,,---,0.00,VWS V15.00,2013-12-31 12:57:00,
2013-12-31 06:02:00,33.9,28.1,30.22,South,191,0.0,0.0,79,0.00,,---,0.00,VWS V15.00,2013-12-31 13:02:00,
2013-12-31 06:07:00,34.1,28.6,30.22,South,191,0.0,0.0,80,0.00,,---,0.00,VWS V15.00,2013-12-31 13:07:00,
2013-12-31 06:12:00,34.8,28.6,30.22,South,190,0.0,0.0,78,0.00,,---,0.00,VWS V15.00,2013-12-31 13:12:00,
2013-12-31 06:17:00,35.3,28.8,30.23,South,191,0.0,1.0,77,0.00,,---,0.00,VWS V15.00,2013-12-31 13:17:00,
2013-12-31 06:22:00,35.7,28.6,30.22,South,191,0.0,0.0,75,0.00,,---,0.00,VWS V15.00,2013-12-31 13:22:00,
2013-12-31 06:27:00,35.9,28.4,30.22,South,191,0.0,0.0,74,0.00,,---,0.00,VWS V15.00,2013-12-31 13:27:00,
2013-12-31 06:32:00,35.9,28.4,30.22,South,191,0.0,0.0,74,0.00,,---,0.00,VWS V15.00,2013-12-31 13:32:00,
2013-12-31 06:37:00,35.3,27.9,30.22,South,191,0.0,0.0,74,0.00,,---,0.00,VWS V15.00,2013-12-31 13:37:00,
2013-12-31 06:42:00,34.6,27.5,30.23,South,191,0.0,0.0,75,0.00,,---,0.00,VWS V15.00,2013-12-31 13:42:00,
2013-12-31 06:47:00,34.1,27.3,30.22,South,190,0.0,0.0,76,0.00,,---,0.00,VWS V15.00,2013-12-31 13:47:00,
2013-12-31 06:52:00,33.7,27.3,30.22,South,191,0.0,0.0,77,0.00,,---,0.00,VWS V15.00,2013-12-31 13:52:00,
2013-12-31 06:57:00,33.4,27.3,30.22,South,191,0.0,0.0,78,0.00,,---,0.00,VWS V15.00,2013-12-31 13:57:00,
2013-12-31 07:02:00,33.5,27.4,30.22,South,190,0.0,0.0,78,0.00,,---,0.00,VWS V15.00,2013-12-31 14:02:00,
2013-12-31 07:07:00,33.5,27.7,30.23,South,191,0.0,0.0,79,0.00,,---,0.00,VWS V15.00,2013-12-31 14:07:00,
2013-12-31 07:12:00,33.5,27.7,30.23,South,191,0.0,0.0,79,0.00,,---,0.00,VWS V15.00,2013-12-31 14:12:00,
2013-12-31 07:17:00,33.5,27.4,30.23,South,191,0.0,0.0,78,0.00,,---,0.00,VWS V15.00,2013-12-31 14:17:00,
2013-12-31 07:22:00,33.2,27.1,30.23,South,191,0.0,0.0,78,0.00,,---,0.00,VWS V15.00,2013-12-31 14:22:00,
2013-12-31 07:27:00,33.0,27.2,30.23,South,191,0.0,0.0,79,0.00,,---,0.00,VWS V15.00,2013-12-31 14:27:00,
2013-12-31 07:32:00,32.9,27.1,30.23,South,191,0.0,0.0,79,0.00,,---,0.00,VWS V15.00,2013-12-31 14:32:00,
2013-12-31 07:37:00,33.0,27.2,30.23,South,191,0.0,0.0,79,0.00,,---,0.00,VWS V15.00,2013-12-31 14:37:00,
2013-12-31 07:42:00,33.3,27.5,30.23,South,191,0.0,0.0,79,0.00,,---,0.00,VWS V15.00,2013-12-31 14:42:00,
2013-12-31 07:47:00,33.5,27.7,30.23,South,191,0.0,0.0,79,0.00,,---,0.00,VWS V15.00,2013-12-31 14:47:00,
2013-12-31 07:52:00,34.0,27.9,30.23,South,191,0.0,0.0,78,0.00,,---,0.00,VWS V15.00,2013-12-31 14:52:00,
2013-12-31 07:57:00,34.3,27.9,30.23,South,191,0.0,0.0,77,0.00,,---,0.00,VWS V15.00,2013-12-31 14:57:00,
2013-12-31 08:02:00,35.2,28.4,30.23,South,191,0.0,0.0,76,0.00,,---,0.00,VWS V15.00,2013-12-31 15:02:00,
2013-12-31 08:07:00,37.7,29.2,30.23,South,191,0.0,0.0,71,0.00,,---,0.00,VWS V15.00,2013-12-31 15:07:00,
2013-12-31 08:12:00,38.9,28.9,30.23,South,191,0.0,0.0,67,0.00,,---,0.00,VWS V15.00,2013-12-31 15:12:00,
2013-12-31 08:16:00,40.6,29.0,30.23,South,191,0.0,0.0,63,0.00,,---,0.00,VWS V15.00,2013-12-31 15:16:00,
2013-12-31 08:21:00,42.1,28.8,30.23,South,191,0.0,0.0,59,0.00,,---,0.00,VWS V15.00,2013-12-31 15:21:00,
2013-12-31 08:26:00,43.0,29.7,30.24,South,191,0.0,0.0,59,0.00,,---,0.00,VWS V15.00,2013-12-31 15:26:00,
2013-12-31 08:31:00,44.3,29.2,30.24,South,191,0.0,0.0,55,0.00,,---,0.00,VWS V15.00,2013-12-31 15:31:00,
2013-12-31 08:36:00,45.6,28.0,30.24,South,191,0.0,0.0,50,0.00,,---,0.00,VWS V15.00,2013-12-31 15:36:00,
2013-12-31 08:41:00,46.3,27.2,30.24,South,191,0.0,0.0,47,0.00,,---,0.00,VWS V15.00,2013-12-31 15:41:00,
2013-12-31 08:46:00,46.8,27.6,30.24,SW,225,0.0,1.0,47,0.00,,---,0.00,VWS V15.00,2013-12-31 15:46:00,
2013-12-31 08:51:00,47.4,28.2,30.24,SW,225,0.0,0.0,47,0.00,,---,0.00,VWS V15.00,2013-12-31 15:51:00,
2013-12-31 08:56:00,47.4,27.7,30.24,SW,225,0.0,1.0,46,0.00,,---,0.00,VWS V15.00,2013-12-31 15:56:00,
2013-12-31 09:02:00,47.8,28.0,30.24,SW,225,0.0,0.0,46,0.00,,---,0.00,VWS V15.00,2013-12-31 16:02:00,
2013-12-31 09:07:00,48.7,27.8,30.24,SW,225,0.0,1.0,44,0.00,,---,0.00,VWS V15.00,2013-12-31 16:07:00,
2013-12-31 09:12:00,49.2,27.7,30.24,SW,225,0.0,1.0,43,0.00,,---,0.00,VWS V15.00,2013-12-31 16:12:00,
2013-12-31 09:17:00,49.7,27.6,30.24,SW,225,0.0,2.0,42,0.00,,---,0.00,VWS V15.00,2013-12-31 16:17:00,
2013-12-31 09:22:00,50.3,26.9,30.24,SW,225,0.0,0.0,40,0.00,,---,0.00,VWS V15.00,2013-12-31 16:22:00,
2013-12-31 09:27:00,51.1,27.0,30.24,SW,225,0.0,2.0,39,0.00,,---,0.00,VWS V15.00,2013-12-31 16:27:00,
2013-12-31 09:32:00,51.7,26.9,30.24,SW,225,0.0,0.0,38,0.00,,---,0.00,VWS V15.00,2013-12-31 16:32:00,
2013-12-31 09:37:00,51.8,27.0,30.24,SW,225,0.0,3.0,38,0.00,,---,0.00,VWS V15.00,2013-12-31 16:37:00,
2013-12-31 09:42:00,52.4,26.2,30.24,SW,225,0.0,1.0,36,0.00,,---,0.00,VWS V15.00,2013-12-31 16:42:00,
2013-12-31 09:47:00,53.1,26.9,30.25,SW,225,2.0,3.0,36,0.00,,---,0.00,VWS V15.00,2013-12-31 16:47:00,
2013-12-31 09:52:00,53.7,26.7,30.25,SW,225,3.0,3.0,35,0.00,,---,0.00,VWS V15.00,2013-12-31 16:52:00,
2013-12-31 09:57:00,54.4,27.3,30.25,West,275,0.0,1.0,35,0.00,,---,0.00,VWS V15.00,2013-12-31 16:57:00,
2013-12-31 10:02:00,55.1,26.5,30.25,WNW,294,2.0,4.0,33,0.00,,---,0.00,VWS V15.00,2013-12-31 17:02:00,
2013-12-31 10:07:00,55.5,26.1,30.25,WNW,294,0.0,1.0,32,0.00,,---,0.00,VWS V15.00,2013-12-31 17:07:00,
2013-12-31 10:12:00,55.6,26.2,30.25,West,261,0.0,0.0,32,0.00,,---,0.00,VWS V15.00,2013-12-31 17:12:00,
2013-12-31 10:17:00,56.3,26.1,30.25,West,261,3.0,4.0,31,0.00,,---,0.00,VWS V15.00,2013-12-31 17:17:00,
2013-12-31 10:22:00,57.3,27.0,30.24,West,261,0.0,1.0,31,0.00,,---,0.00,VWS V15.00,2013-12-31 17:22:00,
2013-12-31 10:27:00,57.7,26.5,30.24,West,259,0.0,1.0,30,0.00,,---,0.00,VWS V15.00,2013-12-31 17:27:00,
2013-12-31 10:32:00,58.3,26.2,30.24,West,259,2.0,3.0,29,0.00,,---,0.00,VWS V15.00,2013-12-31 17:32:00,
2013-12-31 10:37:00,58.4,25.5,30.24,West,259,0.0,3.0,28,0.00,,---,0.00,VWS V15.00,2013-12-31 17:37:00,
2013-12-31 10:42:00,59.7,27.4,30.24,West,259,0.0,1.0,29,0.00,,---,0.00,VWS V15.00,2013-12-31 17:42:00,
2013-12-31 10:47:00,60.2,25.2,30.24,West,259,3.0,3.0,26,0.00,,---,0.00,VWS V15.00,2013-12-31 17:47:00,
2013-12-31 10:52:00,60.9,25.8,30.23,West,259,0.0,0.0,26,0.00,,---,0.00,VWS V15.00,2013-12-31 17:52:00,
2013-12-31 10:57:00,61.3,26.1,30.23,West,259,0.0,1.0,26,0.00,,---,0.00,VWS V15.00,2013-12-31 17:57:00,
2013-12-31 11:02:00,61.7,25.5,30.23,West,259,0.0,0.0,25,0.00,,---,0.00,VWS V15.00,2013-12-31 18:02:00,
2013-12-31 11:07:00,62.0,25.8,30.22,West,259,0.0,1.0,25,0.00,,---,0.00,VWS V15.00,2013-12-31 18:07:00,
2013-12-31 11:12:00,63.1,26.7,30.22,West,259,0.0,1.0,25,0.00,,---,0.00,VWS V15.00,2013-12-31 18:12:00,
2013-12-31 11:17:00,64.0,26.5,30.22,West,259,0.0,0.0,24,0.00,,---,0.00,VWS V15.00,2013-12-31 18:17:00,
2013-12-31 11:22:00,64.2,26.7,30.22,West,259,0.0,3.0,24,0.00,,---,0.00,VWS V15.00,2013-12-31 18:22:00,
2013-12-31 11:27:00,64.0,26.5,30.21,West,259,0.0,0.0,24,0.00,,---,0.00,VWS V15.00,2013-12-31 18:27:00,
2013-12-31 11:32:00,64.1,26.6,30.21,ESE,115,0.0,2.0,24,0.00,,---,0.00,VWS V15.00,2013-12-31 18:32:00,
2013-12-31 11:37:00,64.2,25.7,30.21,SSW,203,0.0,1.0,23,0.00,,---,0.00,VWS V15.00,2013-12-31 18:37:00,
2013-12-31 11:42:00,64.7,27.1,30.20,SSW,203,1.0,1.0,24,0.00,,---,0.00,VWS V15.00,2013-12-31 18:42:00,
2013-12-31 11:47:00,64.7,26.1,30.20,SSW,203,0.0,5.0,23,0.00,,---,0.00,VWS V15.00,2013-12-31 18:47:00,
2013-12-31 11:52:00,65.3,26.6,30.20,SW,234,0.0,4.0,23,0.00,,---,0.00,VWS V15.00,2013-12-31 18:52:00,
2013-12-31 11:57:00,65.4,26.7,30.19,SW,232,0.0,0.0,23,0.00,,---,0.00,VWS V15.00,2013-12-31 18:57:00,
2013-12-31 12:02:00,66.0,27.2,30.19,WSW,244,0.0,0.0,23,0.00,,---,0.00,VWS V15.00,2013-12-31 19:02:00,
2013-12-31 12:07:00,66.1,25.1,30.19,SW,227,0.0,3.0,21,0.00,,---,0.00,VWS V15.00,2013-12-31 19:07:00,
2013-12-31 12:12:00,66.1,26.2,30.18,SW,227,0.0,0.0,22,0.00,,---,0.00,VWS V15.00,2013-12-31 19:12:00,
2013-12-31 12:17:00,66.4,26.4,30.18,WSW,239,0.0,1.0,22,0.00,,---,0.00,VWS V15.00,2013-12-31 19:17:00,
2013-12-31 12:22:00,66.3,25.2,30.18,West,272,0.0,3.0,21,0.00,,---,0.00,VWS V15.00,2013-12-31 19:22:00,
2013-12-31 12:26:00,67.1,25.9,30.18,WNW,284,0.0,3.0,21,0.00,,---,0.00,VWS V15.00,2013-12-31 19:26:00,
2013-12-31 12:31:00,67.7,25.2,30.17,WSW,240,0.0,0.0,20,0.00,,---,0.00,VWS V15.00,2013-12-31 19:31:00,
2013-12-31 12:36:00,68.1,25.5,30.17,WNW,288,0.0,1.0,20,0.00,,---,0.00,VWS V15.00,2013-12-31 19:36:00,
2013-12-31 12:41:00,68.0,24.2,30.17,SSW,195,0.0,4.0,19,0.00,,---,0.00,VWS V15.00,2013-12-31 19:41:00,
2013-12-31 12:46:00,68.3,24.5,30.16,SSW,195,0.0,5.0,19,0.00,,---,0.00,VWS V15.00,2013-12-31 19:46:00,
2013-12-31 12:51:00,68.3,24.5,30.16,South,172,0.0,0.0,19,0.00,,---,0.00,VWS V15.00,2013-12-31 19:51:00,
2013-12-31 12:56:00,68.0,24.2,30.16,SSE,151,0.0,5.0,19,0.00,,---,0.00,VWS V15.00,2013-12-31 19:56:00,
2013-12-31 13:01:00,68.5,24.6,30.15,SSW,198,0.0,4.0,19,0.00,,---,0.00,VWS V15.00,2013-12-31 20:01:00,
2013-12-31 13:06:00,69.0,23.8,30.15,South,189,0.0,0.0,18,0.00,,---,0.00,VWS V15.00,2013-12-31 20:06:00,
2013-12-31 13:11:00,69.6,24.2,30.14,SSW,211,0.0,1.0,18,0.00,,---,0.00,VWS V15.00,2013-12-31 20:11:00,
2013-12-31 13:16:00,69.5,24.2,30.14,SSE,156,0.0,3.0,18,0.00,,---,0.00,VWS V15.00,2013-12-31 20:16:00,
2013-12-31 13:21:00,69.4,25.4,30.14,SSW,205,0.0,3.0,19,0.00,,---,0.00,VWS V15.00,2013-12-31 20:21:00,
2013-12-31 13:26:00,69.8,24.4,30.13,ESE,103,0.0,0.0,18,0.00,,---,0.00,VWS V15.00,2013-12-31 20:26:00,
2013-12-31 13:31:00,69.4,22.7,30.13,WSW,243,3.0,3.0,17,0.00,,---,0.00,VWS V15.00,2013-12-31 20:31:00,
2013-12-31 13:36:00,69.9,23.1,30.12,SW,223,0.0,6.0,17,0.00,,---,0.00,VWS V15.00,2013-12-31 20:36:00,
2013-12-31 13:41:00,69.8,23.1,30.12,SSW,195,0.0,1.0,17,0.00,,---,0.00,VWS V15.00,2013-12-31 20:41:00,
2013-12-31 13:46:00,70.0,21.8,30.12,SW,220,0.0,0.0,16,0.00,,---,0.00,VWS V15.00,2013-12-31 20:46:00,
2013-12-31 13:51:00,70.6,22.3,30.12,South,178,1.0,4.0,16,0.00,,---,0.00,VWS V15.00,2013-12-31 20:51:00,
2013-12-31 13:56:00,70.5,22.2,30.12,SSW,203,0.0,2.0,16,0.00,,---,0.00,VWS V15.00,2013-12-31 20:56:00,
2013-12-31 14:01:00,70.7,23.8,30.11,SSW,202,0.0,1.0,17,0.00,,---,0.00,VWS V15.00,2013-12-31 21:01:00,
2013-12-31 14:06:00,71.0,22.6,30.11,SW,233,0.0,1.0,16,0.00,,---,0.00,VWS V15.00,2013-12-31 21:06:00,
2013-12-31 14:11:00,71.0,22.6,30.11,SSE,161,0.0,5.0,16,0.00,,---,0.00,VWS V15.00,2013-12-31 21:11:00,
2013-12-31 14:16:00,71.2,22.8,30.11,South,184,0.0,2.0,16,0.00,,---,0.00,VWS V15.00,2013-12-31 21:16:00,
2013-12-31 14:21:00,71.2,22.8,30.11,South,182,1.0,1.0,16,0.00,,---,0.00,VWS V15.00,2013-12-31 21:21:00,
2013-12-31 14:26:00,71.5,21.5,30.11,SW,227,0.0,1.0,15,0.00,,---,0.00,VWS V15.00,2013-12-31 21:26:00,
2013-12-31 14:31:00,71.5,21.5,30.11,SW,224,0.0,0.0,15,0.00,,---,0.00,VWS V15.00,2013-12-31 21:31:00,
2013-12-31 14:36:00,71.3,21.3,30.11,SSE,152,2.0,3.0,15,0.00,,---,0.00,VWS V15.00,2013-12-31 21:36:00,
2013-12-31 14:41:00,71.2,21.2,30.11,SSW,192,0.0,1.0,15,0.00,,---,0.00,VWS V15.00,2013-12-31 21:41:00,
2013-12-31 14:46:00,71.5,21.5,30.10,South,186,0.0,3.0,15,0.00,,---,0.00,VWS V15.00,2013-12-31 21:46:00,
2013-12-31 14:51:00,71.4,21.4,30.10,SW,215,2.0,4.0,15,0.00,,---,0.00,VWS V15.00,2013-12-31 21:51:00,
2013-12-31 15:06:00,71.5,19.8,30.10,West,270,0.0,3.0,14,0.00,,---,0.00,VWS V15.00,2013-12-31 22:06:00,
2013-12-31 15:11:00,72.0,20.2,30.10,WSW,248,0.0,2.0,14,0.00,,---,0.00,VWS V15.00,2013-12-31 22:11:00,
2013-12-31 15:16:00,72.4,20.5,30.10,WSW,255,0.0,0.0,14,0.00,,---,0.00,VWS V15.00,2013-12-31 22:16:00,
2013-12-31 15:21:00,72.4,20.5,30.10,West,263,0.0,0.0,14,0.00,,---,0.00,VWS V15.00,2013-12-31 22:21:00,
2013-12-31 15:26:00,72.2,20.4,30.10,SW,214,0.0,2.0,14,0.00,,---,0.00,VWS V15.00,2013-12-31 22:26:00,
2013-12-31 15:31:00,72.2,20.4,30.10,WSW,252,0.0,1.0,14,0.00,,---,0.00,VWS V15.00,2013-12-31 22:31:00,
2013-12-31 15:36:00,72.2,20.4,30.10,WSW,252,0.0,1.0,14,0.00,,---,0.00,VWS V15.00,2013-12-31 22:36:00,
2013-12-31 15:41:00,72.3,18.7,30.10,West,267,0.0,0.0,13,0.00,,---,0.00,VWS V15.00,2013-12-31 22:41:00,
2013-12-31 15:46:00,71.9,20.2,30.10,WSW,244,0.0,2.0,14,0.00,,---,0.00,VWS V15.00,2013-12-31 22:46:00,
2013-12-31 15:51:00,71.9,20.2,30.10,WSW,244,0.0,1.0,14,0.00,,---,0.00,VWS V15.00,2013-12-31 22:51:00,
2013-12-31 15:56:00,72.2,20.4,30.10,WSW,244,0.0,0.0,14,0.00,,---,0.00,VWS V15.00,2013-12-31 22:56:00,
2013-12-31 16:01:00,72.0,20.2,30.10,West,268,0.0,1.0,14,0.00,,---,0.00,VWS V15.00,2013-12-31 23:01:00,
2013-12-31 16:06:00,71.7,20.0,30.10,West,270,0.0,1.0,14,0.00,,---,0.00,VWS V15.00,2013-12-31 23:06:00,
2013-12-31 16:11:00,71.8,20.1,30.10,WSW,243,4.0,4.0,14,0.00,,---,0.00,VWS V15.00,2013-12-31 23:11:00,
2013-12-31 16:16:00,71.5,19.8,30.10,WSW,240,0.0,3.0,14,0.00,,---,0.00,VWS V15.00,2013-12-31 23:16:00,
2013-12-31 16:21:00,71.3,19.7,30.10,WSW,250,0.0,1.0,14,0.00,,---,0.00,VWS V15.00,2013-12-31 23:21:00,
2013-12-31 16:26:00,71.2,19.6,30.10,WSW,248,0.0,0.0,14,0.00,,---,0.00,VWS V15.00,2013-12-31 23:26:00,
2013-12-31 16:31:00,71.2,19.6,30.10,WSW,248,0.0,0.0,14,0.00,,---,0.00,VWS V15.00,2013-12-31 23:31:00,
2013-12-31 16:36:00,71.0,19.4,30.10,WSW,248,0.0,0.0,14,0.00,,---,0.00,VWS V15.00,2013-12-31 23:36:00,
2013-12-31 16:41:00,70.8,20.9,30.10,WSW,248,0.0,0.0,15,0.00,,---,0.00,VWS V15.00,2013-12-31 23:41:00,
2013-12-31 16:46:00,70.6,20.7,30.09,WSW,248,0.0,0.0,15,0.00,,---,0.00,VWS V15.00,2013-12-31 23:46:00,
2013-12-31 16:51:00,70.3,20.5,30.09,WSW,248,0.0,0.0,15,0.00,,---,0.00,VWS V15.00,2013-12-31 23:51:00,
2013-12-31 16:56:00,69.9,21.7,30.09,WSW,248,0.0,0.0,16,0.00,,---,0.00,VWS V15.00,2013-12-31 23:56:00,
2013-12-31 17:01:00,69.5,22.8,30.09,WSW,248,0.0,0.0,17,0.00,,---,0.00,VWS V15.00,2014-01-01 00:01:00,
2013-12-31 17:06:00,68.7,23.5,30.09,WSW,248,0.0,0.0,18,0.00,,---,0.00,VWS V15.00,2014-01-01 00:06:00,
2013-12-31 17:11:00,68.0,23.0,30.09,WSW,248,0.0,0.0,18,0.00,,---,0.00,VWS V15.00,2014-01-01 00:11:00,
2013-12-31 17:16:00,67.9,25.4,30.09,WSW,248,0.0,0.0,20,0.00,,---,0.00,VWS V15.00,2014-01-01 00:16:00,
2013-12-31 17:21:00,67.4,25.0,30.09,WSW,248,0.0,0.0,20,0.00,,---,0.00,VWS V15.00,2014-01-01 00:21:00,
2013-12-31 17:26:00,66.5,25.4,30.09,WSW,248,0.0,0.0,21,0.00,,---,0.00,VWS V15.00,2014-01-01 00:26:00,
2013-12-31 17:31:00,65.4,27.7,30.09,WSW,248,0.0,0.0,24,0.00,,---,0.00,VWS V15.00,2014-01-01 00:31:00,
2013-12-31 17:36:00,64.2,28.6,30.09,WSW,248,0.0,0.0,26,0.00,,---,0.00,VWS V15.00,2014-01-01 00:36:00,
2013-12-31 17:41:00,62.8,27.4,30.09,WSW,248,0.0,0.0,26,0.00,,---,0.00,VWS V15.00,2014-01-01 00:41:00,
2013-12-31 17:46:00,61.8,28.4,30.09,WSW,248,0.0,0.0,28,0.00,,---,0.00,VWS V15.00,2014-01-01 00:46:00,
2013-12-31 17:51:00,60.7,28.3,30.09,WSW,248,0.0,0.0,29,0.00,,---,0.00,VWS V15.00,2014-01-01 00:51:00,
2013-12-31 17:57:00,59.6,29.0,30.09,WSW,248,0.0,0.0,31,0.00,,---,0.00,VWS V15.00,2014-01-01 00:57:00,
2013-12-31 18:02:00,58.6,29.6,30.09,WSW,248,0.0,0.0,33,0.00,,---,0.00,VWS V15.00,2014-01-01 01:02:00,
2013-12-31 18:07:00,57.6,29.5,30.10,WSW,248,0.0,0.0,34,0.00,,---,0.00,VWS V15.00,2014-01-01 01:07:00,
2013-12-31 18:11:00,56.8,30.1,30.10,WSW,248,0.0,0.0,36,0.00,,---,0.00,VWS V15.00,2014-01-01 01:11:00,
2013-12-31 18:16:00,56.0,30.1,30.10,WSW,248,0.0,0.0,37,0.00,,---,0.00,VWS V15.00,2014-01-01 01:16:00,
2013-12-31 18:21:00,55.1,29.3,30.10,WSW,248,0.0,0.0,37,0.00,,---,0.00,VWS V15.00,2014-01-01 01:21:00,
2013-12-31 18:26:00,54.2,28.5,30.10,WSW,248,0.0,0.0,37,0.00,,---,0.00,VWS V15.00,2014-01-01 01:26:00,
2013-12-31 18:31:00,53.7,28.7,30.10,WSW,248,0.0,0.0,38,0.00,,---,0.00,VWS V15.00,2014-01-01 01:31:00,
2013-12-31 18:36:00,53.6,28.6,30.10,WSW,248,0.0,0.0,38,0.00,,---,0.00,VWS V15.00,2014-01-01 01:36:00,
2013-12-31 18:41:00,53.5,29.2,30.10,WSW,248,0.0,0.0,39,0.00,,---,0.00,VWS V15.00,2014-01-01 01:41:00,
2013-12-31 18:46:00,53.3,29.0,30.10,WSW,248,0.0,0.0,39,0.00,,---,0.00,VWS V15.00,2014-01-01 01:46:00,
2013-12-31 18:51:00,53.3,27.7,30.10,WSW,248,0.0,0.0,37,0.00,,---,0.00,VWS V15.00,2014-01-01 01:51:00,
2013-12-31 18:56:00,53.5,26.5,30.11,WSW,248,0.0,0.0,35,0.00,,---,0.00,VWS V15.00,2014-01-01 01:56:00,
2013-12-31 19:01:00,53.8,27.5,30.11,WSW,248,0.0,0.0,36,0.00,,---,0.00,VWS V15.00,2014-01-01 02:01:00,
2013-12-31 19:06:00,53.7,28.7,30.11,WSW,248,0.0,0.0,38,0.00,,---,0.00,VWS V15.00,2014-01-01 02:06:00,
2013-12-31 19:11:00,53.2,28.9,30.11,WSW,248,0.0,0.0,39,0.00,,---,0.00,VWS V15.00,2014-01-01 02:11:00,
2013-12-31 19:16:00,52.7,29.1,30.11,WSW,248,0.0,0.0,40,0.00,,---,0.00,VWS V15.00,2014-01-01 02:16:00,
2013-12-31 19:21:00,52.3,28.7,30.11,WSW,248,0.0,0.0,40,0.00,,---,0.00,VWS V15.00,2014-01-01 02:21:00,
2013-12-31 19:26:00,52.1,29.1,30.11,WSW,248,0.0,0.0,41,0.00,,---,0.00,VWS V15.00,2014-01-01 02:26:00,
2013-12-31 19:31:00,51.9,30.1,30.11,WSW,248,0.0,0.0,43,0.00,,---,0.00,VWS V15.00,2014-01-01 02:31:00,
2013-12-31 19:36:00,51.4,29.1,30.11,WSW,248,0.0,0.0,42,0.00,,---,0.00,VWS V15.00,2014-01-01 02:36:00,
2013-12-31 19:41:00,51.1,29.4,30.11,WSW,248,0.0,0.0,43,0.00,,---,0.00,VWS V15.00,2014-01-01 02:41:00,
2013-12-31 19:46:00,50.8,29.1,30.11,WSW,248,0.0,0.0,43,0.00,,---,0.00,VWS V15.00,2014-01-01 02:46:00,
2013-12-31 19:51:00,50.2,29.1,30.12,WSW,248,0.0,0.0,44,0.00,,---,0.00,VWS V15.00,2014-01-01 02:51:00,
2013-12-31 19:56:00,49.8,28.2,30.12,WSW,248,0.0,0.0,43,0.00,,---,0.00,VWS V15.00,2014-01-01 02:56:00,
2013-12-31 20:01:00,49.6,28.6,30.12,WSW,248,0.0,0.0,44,0.00,,---,0.00,VWS V15.00,2014-01-01 03:01:00,
2013-12-31 20:06:00,49.7,28.7,30.12,WNW,290,0.0,0.0,44,0.00,,---,0.00,VWS V15.00,2014-01-01 03:06:00,
2013-12-31 20:11:00,49.8,28.2,30.12,NNW,344,0.0,0.0,43,0.00,,---,0.00,VWS V15.00,2014-01-01 03:11:00,
2013-12-31 20:16:00,50.0,29.0,30.12,NNW,344,0.0,0.0,44,0.00,,---,0.00,VWS V15.00,2014-01-01 03:16:00,
2013-12-31 20:21:00,50.0,29.0,30.12,NNW,344,0.0,0.0,44,0.00,,---,0.00,VWS V15.00,2014-01-01 03:21:00,
2013-12-31 20:26:00,50.5,27.7,30.12,NNW,344,0.0,0.0,41,0.00,,---,0.00,VWS V15.00,2014-01-01 03:26:00,
2013-12-31 20:31:00,50.6,29.0,30.13,NNW,344,0.0,0.0,43,0.00,,---,0.00,VWS V15.00,2014-01-01 03:31:00,
2013-12-31 20:36:00,50.0,29.5,30.13,NNW,344,0.0,0.0,45,0.00,,---,0.00,VWS V15.00,2014-01-01 03:36:00,
2013-12-31 20:41:00,49.4,28.4,30.13,NNW,344,0.0,0.0,44,0.00,,---,0.00,VWS V15.00,2014-01-01 03:41:00,
2013-12-31 20:46:00,49.3,29.4,30.13,NNW,344,0.0,1.0,46,0.00,,---,0.00,VWS V15.00,2014-01-01 03:46:00,
2013-12-31 20:51:00,49.2,29.9,30.12,NNW,344,0.0,0.0,47,0.00,,---,0.00,VWS V15.00,2014-01-01 03:51:00,
2013-12-31 20:56:00,49.0,30.2,30.13,NNW,344,0.0,0.0,48,0.00,,---,0.00,VWS V15.00,2014-01-01 03:56:00,
2013-12-31 21:01:00,48.6,30.3,30.13,NNW,344,0.0,0.0,49,0.00,,---,0.00,VWS V15.00,2014-01-01 04:01:00,
2013-12-31 21:06:00,47.8,30.1,30.13,NNW,344,0.0,0.0,50,0.00,,---,0.00,VWS V15.00,2014-01-01 04:06:00,
2013-12-31 21:11:00,47.0,29.8,30.13,NNW,344,0.0,0.0,51,0.00,,---,0.00,VWS V15.00,2014-01-01 04:11:00,
2013-12-31 21:16:00,46.3,30.1,30.13,NNW,344,0.0,0.0,53,0.00,,---,0.00,VWS V15.00,2014-01-01 04:16:00,
2013-12-31 21:21:00,45.7,29.1,30.13,NE,50,1.0,1.0,52,0.00,,---,0.00,VWS V15.00,2014-01-01 04:21:00,
2013-12-31 21:26:00,45.9,28.3,30.13,ENE,62,0.0,0.0,50,0.00,,---,0.00,VWS V15.00,2014-01-01 04:26:00,
2013-12-31 21:31:00,46.3,28.2,30.13,ENE,63,0.0,0.0,49,0.00,,---,0.00,VWS V15.00,2014-01-01 04:31:00,
2013-12-31 21:36:00,46.7,28.1,30.13,ENE,72,0.0,0.0,48,0.00,,---,0.00,VWS V15.00,2014-01-01 04:36:00,
2013-12-31 21:41:00,46.9,27.7,30.13,ENE,73,0.0,1.0,47,0.00,,---,0.00,VWS V15.00,2014-01-01 04:41:00,
2013-12-31 21:46:00,46.9,27.2,30.13,ENE,73,0.0,0.0,46,0.00,,---,0.00,VWS V15.00,2014-01-01 04:46:00,
2013-12-31 21:51:00,47.2,27.5,30.13,ENE,74,0.0,0.0,46,0.00,,---,0.00,VWS V15.00,2014-01-01 04:51:00,
2013-12-31 21:56:00,47.5,27.8,30.14,ENE,70,0.0,0.0,46,0.00,,---,0.00,VWS V15.00,2014-01-01 04:56:00,
2013-12-31 22:01:00,47.6,27.3,30.13,ENE,70,0.0,0.0,45,0.00,,---,0.00,VWS V15.00,2014-01-01 05:01:00,
2013-12-31 22:06:00,47.8,27.5,30.13,ENE,69,0.0,0.0,45,0.00,,---,0.00,VWS V15.00,2014-01-01 05:06:00,
2013-12-31 22:11:00,47.7,28.0,30.13,ENE,69,0.0,0.0,46,0.00,,---,0.00,VWS V15.00,2014-01-01 05:11:00,
2013-12-31 22:16:00,48.1,27.8,30.13,NE,48,0.0,0.0,45,0.00,,---,0.00,VWS V15.00,2014-01-01 05:16:00,
2013-12-31 22:21:00,48.2,27.9,30.13,NE,48,0.0,0.0,45,0.00,,---,0.00,VWS V15.00,2014-01-01 05:21:00,
2013-12-31 22:26:00,48.4,28.0,30.13,NE,48,0.0,0.0,45,0.00,,---,0.00,VWS V15.00,2014-01-01 05:26:00,
2013-12-31 22:31:00,48.1,28.3,30.13,NE,48,0.0,0.0,46,0.00,,---,0.00,VWS V15.00,2014-01-01 05:31:00,
2013-12-31 22:36:00,47.7,29.0,30.14,NE,48,0.0,1.0,48,0.00,,---,0.00,VWS V15.00,2014-01-01 05:36:00,
2013-12-31 22:41:00,47.2,29.5,30.13,NE,48,0.0,0.0,50,0.00,,---,0.00,VWS V15.00,2014-01-01 05:41:00,
2013-12-31 22:46:00,46.8,29.6,30.13,NE,48,0.0,0.0,51,0.00,,---,0.00,VWS V15.00,2014-01-01 05:46:00,
2013-12-31 22:51:00,46.3,29.6,30.13,NE,48,0.0,0.0,52,0.00,,---,0.00,VWS V15.00,2014-01-01 05:51:00,
2013-12-31 22:56:00,46.2,28.6,30.13,NE,48,0.0,0.0,50,0.00,,---,0.00,VWS V15.00,2014-01-01 05:56:00,
2013-12-31 23:01:00,46.8,29.6,30.13,NE,48,0.0,0.0,51,0.00,,---,0.00,VWS V15.00,2014-01-01 06:01:00,
2013-12-31 23:06:00,47.0,29.3,30.13,NE,35,0.0,0.0,50,0.00,,---,0.00,VWS V15.00,2014-01-01 06:06:00,
2013-12-31 23:11:00,47.0,29.3,30.13,NE,35,0.0,0.0,50,0.00,,---,0.00,VWS V15.00,2014-01-01 06:11:00,
2013-12-31 23:14:00,46.9,29.2,30.13,NE,35,0.0,0.0,50,0.00,,---,0.00,VWS V15.00,2014-01-01 06:14:00,
2013-12-31 23:19:00,46.4,29.8,30.13,NE,35,0.0,0.0,52,0.00,,---,0.00,VWS V15.00,2014-01-01 06:19:00,
2013-12-31 23:24:00,45.7,30.0,30.13,NE,35,0.0,0.0,54,0.00,,---,0.00,VWS V15.00,2014-01-01 06:24:00,
2013-12-31 23:29:00,44.8,29.6,30.13,NE,35,0.0,0.0,55,0.00,,---,0.00,VWS V15.00,2014-01-01 06:29:00,
2013-12-31 23:34:00,44.0,29.3,30.13,NE,35,0.0,0.0,56,0.00,,---,0.00,VWS V15.00,2014-01-01 06:34:00,
2013-12-31 23:39:00,43.3,29.5,30.13,NE,35,0.0,0.0,58,0.00,,---,0.00,VWS V15.00,2014-01-01 06:39:00,
2013-12-31 23:44:00,42.9,30.0,30.12,NE,35,0.0,0.0,60,0.00,,---,0.00,VWS V15.00,2014-01-01 06:44:00,
2013-12-31 23:49:00,42.8,30.3,30.12,NE,35,0.0,0.0,61,0.00,,---,0.00,VWS V15.00,2014-01-01 06:49:00,
2013-12-31 23:54:00,42.6,30.5,30.12,NE,35,0.0,0.0,62,0.00,,---,0.00,VWS V15.00,2014-01-01 06:54:00,
2013-12-31 23:55:00,42.5,30.4,30.12,NE,35,0.0,0.0,62,0.00,,---,0.00,VWS V15.00,2014-01-01 06:55:00,